{"data":{"norad_id":54880,"epoch":"2026-09-21T18:37:04.391328Z","epoch_age_seconds":54815,"freshness":"FRESH","line1":"1 54880U 22179A   26264.77574527  .00003473  00000+0  18730-3 0  9998","line2":"2 54880 139.3338 196.8082 0009062 285.2587  74.7220 15.11446763206946","mean_motion":15.11446763,"eccentricity":0.0009062,"inclination_deg":139.3338,"raan_deg":196.8082,"arg_perigee_deg":285.2587,"mean_anomaly_deg":74.722,"bstar":0.0001873,"rev_number":20694,"period_min":95.272955373024,"perigee_km":525.52523801907,"apogee_km":538.04878429689,"semimajor_km":6909.924011158,"source":"CELESTRAK","updated_at":"2026-09-22T09:00:25.263570Z"}}